Regional Weather Roundup
Issued by NWS

Home | Current Version | Previous Version | Graphics & Text | Print | Product List | Glossary On
Versions: 1 2 3 4 5 6 7 8 9 10 11 12 13 14 15 16 17 18 19 20 21 22 23 24 25 26 27 28 29 30 31 32 33 34 35 36 37 38 39 40 41 42 43 44 45 46 47 48 49 50
000
ASUS43 KLSX 281407
RWRMO
WEATHER SUMMARY FOR MISSOURI
NATIONAL WEATHER SERVICE SPRINGFIELD MO
900 AM CDT TUE MAR 28 2017

NOTE: "FAIR" INDICATES FEW OR NO CLOUDS BELOW 12,000 FEET WITH NO
       SIGNIFICANT WEATHER AND/OR OBSTRUCTIONS TO VISIBILITY.
       CURRENT SKY AND/OR WEATHER CONDITIONS ARE NOT AVAILABLE FOR
       CHILLICOTHE AND FARMINGTON.

MOZ001>031-035>038-043-044-053-054-281500-
...NORTHERN AND WESTERN MISSOURI...

CITY           SKY/WX    TMP DP  RH WIND       PRES   REMARKS
KANSAS CTY INT DRIZZLE   48  47  96 NE6       30.07S FOG
KANSAS C DTWN  CLOUDY    49  47  93 E8        30.07R FOG
LEE`S SUMMIT   CLOUDY    48  48 100 NE8       30.07R FOG
ST JOSEPH      CLOUDY    49  46  90 E6        30.08R
CHILLICOTHE      N/A     49  45  86 NE5       30.09R
KIRKSVILLE     CLOUDY    48  47  96 NE8       30.09R FOG

$$
MOZ066>068-077>081-088>096-101>105-281500-
...SOUTHWEST MISSOURI...

CITY           SKY/WX    TMP DP  RH WIND       PRES   REMARKS
SPRINGFIELD    CLOUDY    52  50  93 SE3       30.03R
JOPLIN         CLOUDY    51  48  89 E8        30.05R
BRANSON        CLOUDY    52  50  93 CALM      30.05R

$$
MOZ032>034-039>042-045>050-055>058-069>072-281500-
...CENTRAL MISSOURI...

CITY           SKY/WX    TMP DP  RH WIND       PRES   REMARKS
COLUMBIA       CLOUDY    52  49  89 E8        30.06R
JEFFERSON CITY CLOUDY    54  48  80 E7        30.06S
ROLLA          CLOUDY    50  49  96 E10G25    30.05R
SEDALIA        CLOUDY    51  50  96 E7        30.07R FOG
WARRENSBURG    CLOUDY    48  46  93 NE5       30.06R FOG
OSAGE BEACH    CLOUDY   N/A N/A N/A E6        30.07R

$$
MOZ051-052-059>065-281500-
...EAST CENTRAL MISSOURI...

CITY           SKY/WX    TMP DP  RH WIND       PRES   REMARKS
ST LOUIS INTL  CLOUDY    54  48  80 NE6       30.07R
SPIRIT OF STL  CLOUDY    53  49  86 NE7       30.07R
ST CHARLES     CLOUDY    53  50  89 NE7       30.06S

$$
MOZ072>076-082>087-097>100-106>115-281500-
...SOUTH CENTRAL AND SOUTHEAST MISSOURI...

CITY           SKY/WX    TMP DP  RH WIND       PRES   REMARKS
CAPE GIRARDEAU CLOUDY    55  50  83 N9        30.04R
FARMINGTON     CLOUDY    51  49  92 NE6       30.07R FOG
POPLAR BLUFF   CLOUDY    57  52  83 N8        30.04R
WEST PLAINS    CLOUDY    54  51  90 NE7       30.05R

$$



USA.gov is the U.S. government's official web portal to all federal, state and local government web resources and services.